Temp
2 2 2 2 2 2 3 3 3 3 3 3 3 3 3 3 3 3 3 3 3 3 4 4 3 3 3 2 3 3 2 2 2 2 2 2 2 2 2 2 2 1 1 1 1 1 1 1 1 1 1 1 1 0 0 0 -0 -0 -1 -1 -1 -1 -1 -1 -1 -1 -1 -1 -1 -1 -1 -1 -1 -1
3 3 2 2 2 2 3 3 3 3 3 3 3 3 3 3 3 3 3 3 3 3 3 3 3 3 3 2 2 2 2 2 2 2 2 2 1 1 1 1 1 1 1 1 1 1 1 1 1 0 0 0 0 0 0 0 -0 -0 -1 -1 -1 -1 -1 -1 -1 -1 -1 -1 -1 -1 -1 -1 -1 -1
3 3 3 3 2 2 2 3 3 3 3 3 3 3 3 3 3 3 3 3 2 3 3 3 3 3 2 2 2 2 2 2 2 2 2 2 1 1 1 1 1 1 1 1 1 1 1 0 0 0 0 0 0 0 0 -0 -0 -1 -1 -1 -1 -1 -1 -1 -1 -1 -1 -1 -1 -2 -2 -2 -2 -2
3 3 3 3 3 2 2 3 3 3 3 3 3 3 3 3 3 3 3 3 3 3 3 3 3 2 2 2 2 2 2 2 2 2 2 2 1 1 1 1 1 1 1 1 1 1 0 0 0 0 0 0 0 0 0 -0 -0 -1 -1 -1 -1 -1 -1 -1 -1 -1 -1 -1 -2 -2 -2 -2 -2 -2
3 3 3 3 2 2 2 2 2 2 2 3 3 2 3 3 3 3 3 3 3 3 3 3 2 2 2 2 2 2 3 2 2 2 2 2 1 1 1 1 1 0 0 0 0 0 0 0 0 -0 -0 -0 -0 -0 -0 -0 -0 -1 -1 -1 -1 -1 -1 -1 -1 -1 -1 -1 -2 -2 -2 -2 -2 -2
3 3 3 3 2 2 2 2 2 2 2 2 2 2 2 3 3 3 3 3 3 3 3 3 2 2 2 2 2 2 2 2 2 2 1 1 1 1 1 1 0 0 0 0 0 0 0 -0 -0 -0 -0 -0 -0 -0 -0 -0 -0 -1 -1 -1 -1 -1 -1 -1 -1 -1 -1 -1 -2 -2 -2 -2 -2 -2
3 3 3 2 2 2 2 2 2 2 2 2 2 2 2 2 3 3 3 2 2 2 2 2 2 2 2 2 2 2 2 2 2 1 1 1 1 1 1 1 0 0 -0 -0 -0 -0 -0 -0 -0 -0 -0 -0 -1 -1 -1 -0 -0 -1 -1 -1 -1 -1 -1 -1 -1 -1 -1 -2 -2 -2 -2 -2 -2 -2
2 2 2 2 2 2 2 2 2 2 2 2 2 2 2 2 2 2 2 2 2 2 2 2 2 2 2 2 2 2 2 2 2 1 1 1 1 1 1 0 -0 -0 -0 -0 -0 -0 -0 -1 -1 -0 -0 -0 -1 -1 -1 -1 -1 -1 -1 -1 -1 -1 -1 -1 -1 -2 -2 -2 -2 -2 -2 -2 -2 -2
3 3 3 2 2 2 2 2 2 2 2 2 2 2 2 2 2 2 2 2 2 2 2 2 2 2 2 2 2 2 2 2 2 2 1 1 1 1 1 0 -0 -0 -0 -0 -0 -0 -1 -1 -0 -0 -0 -0 -0 -0 -0 -1 -1 -1 -1 -1 -1 -1 -1 -1 -2 -2 -2 -2 -2 -2 -2 -2 -2 -2
3 3 3 2 2 2 2 2 2 2 2 2 2 2 2 2 2 2 2 2 1 2 2 2 2 2 2 2 2 1 1 1 2 2 1 1 1 1 1 0 -0 -0 -0 -0 -1 -1 -1 -0 -0 0 0 0 0 -0 -0 -0 -1 -1 -1 -1 -1 -1 -1 -1 -2 -2 -2 -2 -2 -2 -2 -2 -3 -3
2 2 2 2 2 2 2 2 2 2 2 2 2 2 2 2 1 1 1 1 1 2 2 1 1 2 2 2 1 1 1 1 1 1 1 1 1 1 1 0 -0 -0 -0 -0 -0 -0 -0 0 0 0 0 0 0 0 -0 -0 -0 -0 -1 -1 -1 -1 -1 -1 -2 -2 -2 -2 -2 -2 -2 -2 -2 -3
2 2 2 2 2 2 2 2 2 2 2 2 2 2 2 2 2 1 1 1 1 1 2 1 1 1 1 1 1 1 1 1 2 2 1 1 1 1 0 0 -0 -1 -1 -0 -0 -0 0 0 0 0 0 0 -0 -0 -0 -0 -1 -1 -1 -1 -1 -1 -2 -2 -2 -2 -2 -2 -2 -2 -2 -2 -2 -2
2 1 1 2 2 2 2 2 2 2 2 2 2 2 2 2 1 1 1 1 1 1 1 1 1 1 1 1 1 1 2 2 1 1 1 1 1 0 -0 -0 -0 -0 -0 -0 0 0 0 0 -0 -0 -0 -0 -1 -1 -1 -1 -1 -1 -2 -2 -2 -2 -2 -2 -2 -2 -2 -2 -2 -2 -2 -2 -2 -2
2 2 2 2 2 2 2 2 2 1 1 1 2 2 2 1 1 1 1 1 1 1 1 1 1 1 1 1 2 2 2 1 1 1 1 1 1 1 0 0 0 0 0 0 0 0 0 -0 -0 -1 -1 -1 -1 -1 -2 -2 -2 -2 -2 -2 -2 -2 -2 -2 -2 -2 -2 -3 -2 -2 -2 -2 -2 -2
1 1 2 2 2 1 1 1 1 1 1 1 1 1 1 1 2 1 1 1 1 1 1 1 1 1 1 1 1 1 1 1 1 1 1 1 1 1 1 1 1 1 1 0 0 0 -0 -0 -1 -1 -1 -1 -1 -2 -2 -2 -2 -2 -2 -2 -2 -2 -2 -2 -2 -2 -3 -3 -3 -2 -2 -2 -2 -2
1 1 1 1 1 1 1 1 1 1 1 1 1 1 1 1 1 1 1 1 1 1 1 1 1 1 1 1 1 1 1 1 1 1 1 1 1 1 1 1 0 0 0 0 -0 -0 -0 -1 -1 -1 -1 -1 -1 -2 -2 -2 -2 -2 -2 -2 -2 -2 -2 -2 -2 -2 -3 -3 -3 -2 -2 -2 -2 -2
1 1 1 1 1 0 0 1 1 1 1 1 1 1 1 1 1 1 1 1 1 1 2 1 1 1 1 1 1 1 1 1 1 1 1 1 0 0 0 0 -0 -0 -0 -0 -0 -1 -1 -1 -1 -1 -1 -1 -1 -1 -2 -2 -2 -2 -2 -2 -2 -2 -2 -2 -2 -2 -3 -2 -2 -2 -2 -2 -2 -2
0 0 0 0 0 0 0 1 1 1 1 1 1 1 1 1 1 1 1 1 1 1 1 1 1 1 1 1 1 1 0 0 0 0 0 0 -0 -0 -0 -0 -0 -1 -1 -1 -1 -1 -1 -1 -1 -2 -2 -1 -1 -2 -2 -2 -2 -2 -2 -2 -2 -2 -2 -2 -2 -2 -3 -2 -2 -2 -2 -2 -2 -2
0 0 0 0 0 0 0 0 1 1 0 0 0 0 0 1 1 1 1 1 1 1 1 1 1 1 1 1 0 0 0 -0 -0 -0 -1 -1 -1 -1 -0 -0 -1 -1 -1 -1 -1 -1 -1 -1 -2 -2 -2 -2 -2 -2 -2 -2 -2 -2 -2 -2 -2 -2 -2 -2 -2 -3 -3 -3 -3 -2 -2 -2 -2 -2
0 0 0 0 0 -0 -0 0 0 0 0 0 0 0 0 0 0 0 1 1 1 1 1 0 0 0 0 0 -0 -0 -0 -1 -1 -1 -1 -1 -1 -1 -1 -1 -1 -1 -1 -1 -1 -1 -1 -1 -1 -2 -2 -2 -2 -2 -2 -2 -2 -2 -2 -3 -3 -3 -3 -3 -3 -3 -3 -3 -3 -3 -2 -2 -2 -2
0 -0 -0 -0 0 -0 -0 -0 -0 -0 -0 0 0 -0 0 0 0 0 1 1 1 1 0 0 0 -0 -0 0 -0 -1 -1 -1 -1 -1 -1 -1 -1 -1 -1 -1 -1 -1 -1 -2 -2 -2 -2 -2 -2 -2 -2 -2 -2 -2 -2 -2 -3 -3 -3 -3 -3 -3 -3 -3 -3 -4 -4 -4 -3 -3 -3 -3 -3 -3
0 -0 -0 -0 -0 -0 -0 -0 -0 -0 -0 -0 -0 -0 -0 0 0 0 1 1 0 0 0 0 0 -0 -0 -0 -0 -0 -0 -1 -1 -1 -1 -1 -1 -1 -1 -1 -1 -2 -2 -2 -2 -2 -2 -2 -2 -2 -2 -2 -2 -3 -3 -3 -3 -3 -3 -3 -3 -3 -3 -4 -4 -4 -4 -4 -4 -4 -4 -3 -3 -3
-0 -0 -0 -0 -0 -1 -0 -1 -1 -1 -1 -0 -0 -0 -0 -0 -0 0 0 0 0 0 -0 -0 -0 -0 -0 -0 -0 -0 -0 -1 -1 -1 -1 -1 -1 -1 -1 -1 -2 -2 -2 -2 -2 -2 -2 -2 -2 -2 -2 -2 -2 -3 -3 -3 -3 -3 -3 -3 -4 -4 -4 -4 -4 -5 -5 -5 -5 -4 -4 -4 -4 -4
-0 -0 -0 -1 -1 -1 -0 -1 -1 -1 -1 -1 -1 -1 -1 -1 -1 -0 -0 -0 -0 -0 -0 -0 -0 -0 -0 -0 -0 -0 -1 -1 -1 -1 -1 -1 -1 -1 -1 -1 -1 -2 -2 -2 -2 -2 -2 -2 -2 -2 -2 -2 -2 -3 -3 -3 -3 -3 -4 -4 -4 -5 -5 -5 -5 -5 -5 -5 -5 -4 -4 -4 -4 -4
-1 -1 -0 -0 -1 -1 -1 -1 -1 -1 -1 -1 -1 -1 -1 -1 -1 -1 -1 -1 -1 -0 -0 -1 -1 -0 -1 -1 -0 -0 -1 -1 -1 -1 -1 -1 -2 -2 -1 -1 -1 -2 -2 -2 -2 -2 -2 -2 -2 -2 -3 -3 -3 -3 -3 -3 -4 -4 -5 -5 -5 -5 -5 -5 -5 -5 -5 -5 -5 -5 -5 -5 -5 -5
-1 -1 -1 -1 -1 -1 -1 -1 -1 -1 -1 -1 -1 -1 -1 -1 -1 -1 -1 -1 -1 -1 -1 -1 -1 -1 -1 -1 -1 -1 -1 -1 -1 -1 -2 -2 -2 -2 -2 -2 -2 -2 -2 -2 -2 -2 -2 -3 -3 -3 -3 -3 -3 -3 -4 -5 -5 -6 -6 -6 -5 -5 -5 -5 -5 -5 -5 -5 -5 -5 -5 -5 -6 -6
-1 -2 -2 -1 -2 -2 -2 -2 -2 -2 -2 -2 -2 -2 -2 -2 -2 -2 -2 -1 -1 -1 -1 -1 -1 -1 -1 -2 -1 -1 -2 -2 -2 -2 -2 -2 -2 -2 -2 -2 -2 -2 -2 -3 -3 -3 -3 -3 -3 -3 -4 -4 -4 -5 -5 -6 -6 -6 -6 -6 -6 -6 -5 -5 -5 -6 -6 -6 -6 -5 -6 -6 -6 -7
-1 -1 -1 -1 -2 -2 -2 -2 -2 -2 -2 -2 -2 -2 -2 -2 -2 -2 -2 -2 -2 -2 -2 -2 -2 -2 -2 -2 -2 -2 -2 -2 -2 -2 -2 -2 -2 -3 -3 -3 -3 -3 -3 -3 -3 -3 -3 -4 -4 -4 -5 -4 -5 -6 -6 -7 -7 -7 -7 -6 -6 -6 -6 -6 -6 -6 -6 -6 -6 -6 -6 -6 -7 -7
-2 -2 -2 -2 -2 -2 -2 -2 -2 -1 -1 -1 -1 -2 -2 -2 -2 -2 -2 -3 -2 -2 -2 -2 -2 -2 -2 -2 -3 -3 -3 -3 -3 -3 -2 -2 -2 -3 -3 -3 -3 -3 -3 -3 -3 -3 -3 -4 -5 -5 -5 -5 -6 -7 -7 -7 -7 -7 -7 -7 -7 -7 -7 -7 -7 -6 -6 -7 -7 -7 -7 -7 -7 -7
-2 -2 -2 -2 -2 -2 -2 -2 -2 -2 -2 -2 -2 -2 -2 -2 -2 -3 -3 -3 -3 -3 -3 -3 -3 -3 -3 -3 -3 -3 -3 -3 -3 -3 -3 -3 -3 -3 -3 -3 -3 -3 -3 -3 -4 -4 -4 -5 -5 -6 -6 -7 -7 -7 -8 -8 -8 -8 -7 -7 -7 -7 -7 -7 -7 -7 -7 -7 -8 -8 -8 -8 -7 -7
-2 -2 -2 -2 -2 -2 -2 -2 -2 -2 -2 -2 -2 -2 -2 -2 -3 -3 -3 -3 -3 -3 -3 -3 -3 -3 -3 -3 -3 -3 -3 -3 -3 -4 -4 -4 -4 -4 -4 -4 -4 -4 -4 -4 -5 -5 -5 -6 -6 -7 -8 -8 -8 -8 -8 -8 -8 -8 -8 -8 -8 -8 -8 -8 -8 -8 -8 -8 -8 -8 -8 -8 -8 -8
-3 -3 -3 -3 -3 -3 -3 -3 -3 -3 -3 -3 -3 -3 -3 -3 -3 -3 -3 -3 -3 -3 -3 -3 -4 -4 -4 -4 -4 -4 -4 -4 -4 -4 -4 -4 -4 -4 -4 -4 -5 -5 -5 -5 -6 -6 -7 -7 -8 -8 -9 -9 -9 -9 -9 -8 -8 -8 -8 -8 -8 -8 -8 -8 -9 -9 -8 -8 -8 -8 -8 -8 -8 -8
-3 -3 -3 -3 -3 -3 -3 -3 -3 -3 -3 -3 -3 -4 -4 -4 -4 -4 -4 -4 -4 -4 -4 -4 -4 -4 -5 -5 -5 -5 -5 -5 -5 -5 -5 -5 -5 -5 -6 -6 -6 -6 -7 -7 -8 -9 -9 -9 -9 -9 -9 -9 -9 -9 -9 -9 -9 -9 -9 -9 -9 -9 -9 -9 -9 -9 -8 -8 -8 -8 -9 -9 -9 -9
-4 -4 -3 -3 -3 -3 -3 -3 -3 -3 -4 -4 -4 -4 -4 -4 -4 -4 -4 -4 -5 -5 -5 -5 -5 -5 -5 -5 -5 -5 -5 -6 -6 -6 -6 -6 -6 -7 -7 -8 -8 -9 -9 -9 -10 -10 -10 -10 -9 -9 -9 -9 -9 -9 -9 -9 -9 -9 -9 -9 -9 -9 -9 -9 -9 -8 -8 -8 -9 -9 -9 -9 -9 -9
-4 -4 -4 -4 -4 -4 -4 -4 -4 -4 -4 -4 -4 -4 -4 -5 -5 -5 -5 -5 -5 -5 -5 -5 -6 -6 -6 -6 -7 -7 -7 -7 -7 -7 -7 -8 -8 -9 -9 -10 -10 -10 -10 -10 -10 -10 -10 -10 -10 -10 -10 -10 -10 -10 -10 -9 -9 -10 -10 -10 -10 -10 -9 -9 -9 -9 -9 -9 -9 -9 -9 -9 -9 -9
-4 -4 -4 -4 -4 -4 -4 -4 -4 -5 -5 -5 -5 -5 -5 -5 -5 -6 -6 -6 -6 -6 -6 -6 -6 -7 -7 -7 -7 -7 -8 -8 -8 -8 -8 -9 -9 -9 -10 -10 -11 -11 -11 -11 -11 -10 -10 -10 -10 -10 -10 -10 -10 -10 -10 -10 -10 -10 -10 -10 -10 -9 -9 -9 -9 -9 -9 -9 -9 -9 -10 -10 -10 -10
-4 -4 -4 -4 -4 -5 -5 -5 -5 -5 -5 -5 -5 -6 -6 -6 -6 -6 -6 -6 -7 -7 -7 -7 -7 -7 -8 -8 -8 -8 -8 -9 -9 -9 -9 -9 -10 -10 -10 -11 -11 -11 -11 -11 -11 -11 -11 -11 -11 -10 -10 -11 -11 -11 -11 -11 -10 -10 -10 -10 -10 -9 -9 -9 -9 -9 -10 -10 -10 -10 -10 -10 -10 -10
-4 -4 -4 -4 -5 -5 -5 -5 -6 -6 -6 -6 -6 -6 -6 -6 -6 -7 -7 -7 -7 -7 -7 -8 -8 -8 -8 -8 -9 -9 -9 -9 -9 -10 -10 -10 -10 -10 -11 -11 -11 -11 -11 -11 -11 -11 -11 -11 -10 -10 -10 -10 -11 -11 -11 -11 -11 -11 -11 -10 -10 -10 -10 -10 -10 -10 -10 -10 -10 -10 -10 -10 -10 -10
-4 -4 -5 -5 -5 -5 -5 -6 -6 -6 -6 -6 -6 -7 -7 -7 -7 -7 -7 -7 -7 -7 -7 -8 -8 -8 -8 -9 -9 -9 -9 -9 -10 -10 -10 -10 -10 -10 -11 -11 -11 -11 -11 -11 -11 -11 -11 -11 -11 -10 -10 -11 -11 -11 -11 -11 -11 -11 -11 -10 -10 -10 -10 -10 -10 -10 -10 -10 -10 -10 -10 -10 -10 -10
-4 -5 -5 -5 -5 -5 -5 -5 -6 -6 -6 -7 -7 -7 -7 -7 -7 -7 -7 -7 -7 -7 -8 -8 -8 -8 -9 -9 -9 -9 -9 -10 -10 -10 -10 -10 -11 -11 -11 -11 -11 -11 -11 -11 -11 -11 -11 -11 -11 -11 -11 -11 -11 -11 -11 -11 -11 -11 -11 -10 -10 -11 -10 -10 -10 -10 -10 -10 -10 -10 -10 -10 -10 -10
-5 -5 -5 -5 -5 -5 -5 -5 -6 -6 -6 -7 -7 -7 -7 -7 -7 -7 -7 -7 -7 -8 -8 -8 -8 -8 -9 -9 -10 -10 -10 -10 -10 -11 -11 -11 -11 -11 -11 -11 -11 -11 -11 -11 -11 -11 -11 -11 -11 -11 -12 -11 -11 -11 -11 -11 -11 -11 -11 -11 -11 -11 -11 -11 -11 -10 -10 -10 -10 -11 -11 -11 -11 -11
-5 -5 -5 -5 -5 -6 -6 -6 -6 -6 -7 -7 -7 -7 -7 -7 -7 -7 -8 -8 -8 -8 -8 -8 -8 -9 -9 -9 -10 -10 -10 -10 -11 -11 -11 -11 -11 -11 -11 -11 -11 -11 -11 -11 -11 -11 -11 -11 -11 -11 -12 -12 -12 -11 -11 -11 -11 -11 -11 -11 -11 -11 -11 -11 -11 -11 -11 -11 -11 -11 -11 -11 -11 -11
-6 -6 -6 -6 -6 -6 -6 -6 -6 -7 -7 -7 -7 -7 -8 -8 -8 -8 -8 -8 -8 -8 -8 -9 -9 -9 -9 -10 -10 -10 -10 -10 -11 -11 -11 -11 -11 -11 -11 -11 -11 -11 -11 -11 -11 -11 -11 -11 -11 -12 -12 -12 -12 -12 -12 -12 -12 -11 -11 -11 -11 -11 -11 -11 -11 -11 -11 -11 -11 -11 -11 -11 -11 -11
-6 -6 -6 -6 -7 -7 -7 -7 -7 -7 -7 -7 -8 -8 -8 -8 -8 -8 -8 -8 -9 -9 -9 -9 -9 -10 -10 -10 -10 -10 -11 -11 -11 -11 -12 -12 -11 -11 -12 -12 -12 -12 -12 -11 -11 -11 -12 -12 -12 -12 -12 -12 -12 -12 -12 -12 -12 -11 -11 -11 -11 -11 -11 -11 -11 -11 -11 -11 -11 -11 -11 -11 -11 -11
-7 -7 -7 -7 -7 -7 -7 -7 -7 -8 -8 -8 -8 -8 -8 -8 -8 -9 -9 -9 -9 -9 -9 -9 -10 -10 -10 -10 -11 -11 -11 -11 -11 -12 -12 -12 -12 -12 -12 -12 -12 -12 -12 -12 -12 -12 -12 -12 -12 -12 -12 -12 -12 -12 -12 -12 -12 -11 -11 -11 -11 -11 -11 -11 -11 -11 -11 -11 -11 -11 -11 -11 -11 -11
Height
3097 3097 3097 3099 3101 3102 3103 3104 3105 3107 3109 3112 3114 3116 3118 3119 3121 3122 3123 3125 3126 3127 3128 3129 3131 3132 3133 3134 3135 3136 3136 3137 3138 3139 3139 3140 3141 3142 3142 3143 3144 3144 3145 3146 3147 3148 3148 3148 3149 3149 3149 3150 3150 3150 3150 3150 3151 3151 3151 3152 3152 3152 3152 3153 3153 3153 3153 3153 3153 3153 3153 3153 3152 3152
3096 3096 3097 3098 3099 3100 3102 3102 3104 3106 3108 3110 3112 3114 3116 3117 3119 3120 3121 3123 3124 3125 3127 3128 3130 3131 3132 3133 3134 3134 3135 3136 3137 3137 3138 3139 3140 3140 3141 3141 3142 3143 3144 3145 3145 3146 3146 3147 3147 3147 3147 3148 3148 3148 3149 3149 3149 3150 3150 3150 3151 3151 3151 3151 3151 3151 3151 3151 3151 3151 3151 3151 3151 3151
3095 3095 3096 3097 3098 3099 3100 3101 3102 3104 3106 3108 3110 3112 3114 3115 3117 3118 3119 3120 3122 3123 3125 3127 3129 3130 3130 3131 3132 3133 3134 3134 3135 3136 3136 3137 3138 3139 3139 3140 3141 3141 3142 3143 3144 3144 3145 3145 3145 3146 3146 3146 3146 3147 3147 3148 3148 3148 3149 3149 3149 3150 3150 3150 3150 3150 3150 3150 3150 3150 3150 3149 3149 3149
3093 3094 3095 3096 3097 3097 3098 3099 3100 3102 3104 3106 3108 3110 3111 3113 3114 3115 3116 3118 3119 3121 3123 3125 3127 3128 3128 3129 3130 3131 3132 3133 3133 3134 3135 3136 3137 3137 3138 3139 3139 3140 3141 3142 3142 3143 3143 3144 3144 3144 3144 3144 3144 3145 3145 3146 3146 3147 3147 3148 3148 3148 3148 3148 3148 3148 3148 3148 3148 3148 3148 3147 3147 3147
3090 3092 3093 3094 3095 3096 3096 3098 3099 3100 3102 3104 3106 3108 3109 3110 3111 3112 3113 3115 3117 3119 3121 3123 3125 3126 3126 3127 3128 3130 3131 3132 3132 3132 3133 3134 3135 3136 3137 3138 3138 3139 3140 3140 3141 3141 3142 3142 3142 3142 3142 3142 3142 3143 3143 3144 3145 3145 3146 3146 3147 3147 3147 3147 3147 3146 3146 3146 3146 3146 3146 3145 3145 3145
3088 3089 3091 3092 3093 3094 3095 3096 3097 3098 3100 3101 3103 3106 3107 3109 3110 3111 3112 3114 3115 3117 3119 3121 3122 3123 3124 3125 3127 3128 3129 3130 3130 3131 3132 3133 3134 3134 3135 3136 3137 3138 3138 3139 3139 3140 3140 3140 3140 3140 3141 3141 3141 3141 3142 3142 3143 3143 3144 3144 3145 3145 3145 3145 3145 3145 3145 3145 3144 3144 3144 3144 3143 3143
3086 3087 3089 3090 3092 3092 3093 3094 3094 3096 3098 3100 3101 3103 3104 3106 3109 3110 3111 3112 3113 3115 3117 3119 3120 3121 3122 3124 3125 3126 3127 3127 3128 3129 3130 3131 3132 3133 3134 3135 3136 3136 3137 3137 3138 3138 3138 3138 3138 3139 3139 3139 3139 3140 3140 3141 3141 3142 3142 3143 3143 3144 3144 3144 3144 3143 3143 3143 3143 3142 3142 3142 3142 3141
3084 3086 3087 3089 3090 3091 3092 3092 3093 3095 3098 3099 3099 3100 3102 3104 3106 3107 3109 3110 3112 3113 3115 3117 3118 3119 3120 3122 3123 3124 3125 3125 3125 3126 3127 3129 3130 3131 3132 3133 3134 3135 3135 3136 3136 3136 3136 3136 3136 3137 3137 3137 3137 3138 3138 3139 3139 3140 3140 3141 3141 3142 3142 3142 3142 3142 3142 3141 3141 3141 3140 3140 3140 3139
3083 3085 3086 3087 3088 3088 3090 3092 3092 3094 3097 3098 3098 3099 3102 3103 3104 3105 3107 3108 3110 3111 3113 3114 3115 3116 3117 3119 3120 3121 3122 3122 3123 3124 3125 3126 3128 3129 3130 3131 3132 3133 3134 3134 3134 3134 3134 3134 3135 3135 3135 3135 3136 3136 3137 3137 3138 3138 3139 3139 3140 3140 3140 3140 3140 3140 3140 3139 3139 3139 3139 3138 3138 3137
3083 3084 3084 3085 3085 3086 3089 3090 3091 3092 3095 3096 3097 3098 3100 3101 3102 3104 3105 3107 3108 3109 3111 3112 3113 3115 3116 3117 3118 3119 3120 3121 3121 3122 3123 3124 3125 3127 3128 3129 3130 3131 3132 3132 3132 3132 3132 3132 3132 3133 3133 3134 3134 3134 3135 3135 3136 3136 3137 3137 3138 3138 3138 3138 3138 3138 3138 3137 3137 3137 3137 3136 3136 3136
3081 3082 3083 3083 3084 3085 3086 3088 3089 3090 3092 3094 3095 3096 3097 3099 3100 3101 3102 3104 3105 3107 3108 3110 3111 3113 3114 3115 3116 3117 3118 3118 3119 3120 3122 3123 3124 3125 3126 3127 3128 3129 3130 3130 3130 3130 3130 3130 3131 3131 3132 3132 3133 3133 3133 3134 3134 3135 3135 3135 3136 3136 3136 3136 3136 3136 3136 3135 3135 3135 3135 3134 3134 3134
3079 3080 3080 3081 3082 3082 3083 3085 3087 3089 3089 3090 3092 3093 3095 3096 3097 3098 3100 3101 3102 3104 3106 3107 3108 3110 3112 3113 3114 3114 3115 3117 3118 3119 3120 3121 3123 3124 3125 3125 3126 3127 3128 3128 3128 3128 3128 3128 3129 3130 3130 3131 3131 3132 3132 3133 3133 3133 3133 3133 3134 3134 3134 3134 3134 3133 3133 3133 3132 3132 3132 3131 3131 3131
3077 3078 3079 3079 3080 3081 3082 3084 3086 3087 3087 3087 3088 3090 3092 3093 3095 3096 3098 3098 3100 3102 3103 3104 3105 3107 3109 3110 3111 3112 3114 3116 3117 3117 3118 3119 3120 3121 3122 3123 3124 3125 3125 3125 3125 3126 3126 3126 3127 3128 3129 3129 3130 3130 3131 3131 3131 3131 3131 3131 3131 3131 3131 3131 3131 3131 3130 3130 3130 3129 3129 3128 3128 3127
3076 3077 3078 3078 3079 3080 3081 3082 3084 3085 3085 3085 3086 3088 3089 3090 3091 3093 3095 3095 3096 3098 3100 3101 3103 3104 3106 3108 3110 3112 3114 3114 3115 3116 3117 3117 3118 3118 3119 3120 3121 3122 3122 3123 3123 3124 3124 3125 3126 3126 3127 3127 3128 3128 3129 3129 3129 3129 3129 3129 3129 3129 3129 3129 3128 3128 3127 3127 3126 3126 3125 3125 3124 3123
3076 3076 3076 3076 3077 3078 3079 3080 3082 3083 3084 3084 3085 3086 3087 3088 3089 3090 3091 3092 3093 3095 3096 3098 3100 3102 3103 3106 3109 3110 3111 3112 3113 3114 3115 3115 3115 3116 3117 3118 3119 3120 3121 3121 3122 3122 3122 3123 3124 3124 3125 3125 3126 3126 3126 3126 3126 3126 3126 3126 3126 3126 3126 3126 3125 3125 3124 3123 3123 3123 3122 3121 3121 3120
3075 3075 3075 3075 3076 3077 3078 3078 3080 3082 3082 3082 3083 3084 3085 3087 3087 3088 3089 3091 3091 3092 3093 3095 3097 3099 3101 3104 3106 3108 3109 3111 3111 3112 3113 3113 3114 3115 3116 3117 3118 3119 3120 3120 3120 3120 3121 3121 3121 3122 3122 3123 3123 3123 3123 3123 3124 3124 3124 3124 3123 3123 3122 3122 3122 3121 3121 3120 3120 3119 3119 3118 3117 3116
3074 3074 3074 3075 3075 3076 3076 3077 3078 3079 3080 3080 3081 3083 3084 3085 3085 3086 3087 3089 3090 3090 3091 3092 3095 3097 3099 3101 3104 3105 3107 3109 3109 3110 3111 3112 3113 3114 3115 3116 3117 3118 3118 3118 3118 3118 3118 3119 3119 3119 3120 3120 3120 3120 3120 3120 3120 3121 3121 3120 3120 3120 3119 3119 3118 3118 3118 3117 3116 3115 3115 3115 3114 3112
3073 3074 3074 3074 3074 3075 3076 3076 3076 3077 3078 3079 3079 3081 3082 3082 3083 3084 3085 3087 3088 3089 3090 3091 3093 3096 3097 3099 3101 3103 3104 3106 3108 3109 3110 3111 3112 3113 3114 3115 3115 3115 3116 3116 3116 3116 3116 3116 3116 3116 3117 3117 3117 3117 3117 3117 3117 3117 3117 3117 3117 3117 3116 3116 3115 3114 3114 3114 3113 3112 3112 3111 3109 3108
3073 3073 3073 3072 3073 3074 3075 3075 3075 3076 3076 3077 3078 3079 3080 3081 3082 3083 3084 3085 3087 3088 3089 3090 3092 3094 3095 3097 3099 3101 3102 3104 3105 3107 3108 3109 3110 3110 3111 3112 3112 3112 3112 3113 3113 3113 3113 3113 3113 3113 3114 3114 3114 3114 3114 3114 3114 3114 3114 3114 3113 3113 3112 3112 3111 3111 3110 3110 3110 3109 3108 3106 3105 3105
3072 3072 3072 3071 3072 3072 3073 3073 3074 3074 3075 3075 3076 3077 3079 3080 3081 3082 3082 3084 3085 3087 3088 3089 3090 3092 3093 3094 3096 3098 3100 3102 3103 3104 3104 3105 3105 3106 3108 3108 3109 3109 3109 3109 3110 3110 3110 3110 3110 3110 3110 3110 3110 3110 3110 3110 3110 3110 3110 3110 3110 3109 3108 3108 3107 3107 3106 3106 3106 3105 3104 3103 3102 3101
3071 3071 3071 3070 3070 3071 3071 3072 3072 3073 3074 3075 3075 3076 3078 3079 3080 3081 3081 3082 3084 3085 3087 3088 3090 3092 3093 3094 3095 3096 3098 3099 3100 3101 3101 3101 3102 3103 3104 3105 3105 3106 3106 3106 3107 3107 3106 3106 3106 3106 3106 3106 3106 3106 3106 3106 3106 3106 3106 3106 3105 3104 3103 3103 3102 3101 3101 3101 3101 3101 3100 3100 3099 3098
3070 3070 3070 3069 3069 3070 3070 3071 3071 3072 3073 3074 3075 3076 3077 3079 3080 3081 3081 3082 3082 3084 3085 3087 3089 3090 3091 3093 3093 3093 3094 3096 3097 3098 3098 3099 3100 3100 3101 3102 3102 3102 3103 3103 3104 3104 3103 3102 3102 3103 3103 3102 3102 3102 3102 3102 3102 3101 3101 3101 3100 3099 3099 3098 3097 3097 3097 3097 3098 3098 3097 3097 3096 3095
3070 3070 3070 3070 3070 3070 3071 3071 3072 3072 3073 3074 3075 3075 3076 3078 3080 3080 3081 3082 3083 3084 3085 3087 3088 3089 3089 3090 3091 3091 3092 3093 3094 3095 3096 3097 3097 3098 3098 3099 3099 3098 3099 3100 3100 3100 3100 3099 3099 3099 3099 3099 3098 3098 3098 3097 3097 3097 3097 3096 3095 3095 3094 3094 3094 3094 3094 3094 3094 3094 3094 3093 3092 3091
3071 3071 3070 3070 3071 3071 3071 3072 3072 3073 3073 3074 3074 3075 3076 3077 3079 3080 3081 3082 3083 3084 3085 3086 3087 3087 3088 3089 3090 3090 3091 3091 3092 3093 3095 3095 3095 3096 3096 3096 3095 3095 3095 3095 3096 3096 3096 3096 3095 3095 3095 3095 3094 3094 3093 3093 3093 3093 3093 3092 3092 3091 3092 3092 3092 3092 3091 3091 3091 3091 3090 3090 3088 3087
3071 3071 3071 3071 3071 3071 3071 3072 3073 3073 3073 3074 3074 3075 3076 3077 3078 3080 3081 3082 3082 3083 3084 3085 3085 3086 3087 3088 3089 3089 3089 3090 3091 3092 3093 3092 3093 3093 3093 3092 3092 3091 3091 3091 3092 3092 3091 3091 3090 3090 3091 3091 3090 3089 3089 3089 3090 3090 3090 3089 3089 3089 3090 3090 3090 3089 3089 3088 3088 3087 3087 3086 3085 3084
3073 3072 3072 3072 3072 3072 3073 3073 3074 3073 3074 3074 3074 3075 3076 3077 3078 3079 3080 3081 3081 3082 3082 3083 3084 3085 3085 3085 3087 3087 3087 3087 3088 3089 3089 3089 3089 3089 3089 3089 3088 3088 3088 3088 3088 3088 3087 3086 3086 3086 3087 3086 3086 3085 3085 3086 3086 3087 3087 3087 3087 3087 3087 3087 3087 3086 3086 3085 3085 3084 3084 3083 3082 3081
3073 3073 3073 3073 3073 3074 3074 3074 3074 3074 3074 3074 3074 3074 3075 3076 3076 3077 3078 3079 3079 3080 3080 3081 3082 3082 3083 3083 3084 3084 3084 3084 3085 3085 3085 3085 3085 3085 3085 3085 3084 3083 3083 3084 3084 3083 3083 3082 3082 3082 3082 3082 3082 3082 3082 3082 3083 3083 3083 3084 3084 3085 3084 3084 3083 3083 3083 3082 3082 3081 3081 3080 3079 3078
3073 3074 3074 3074 3074 3074 3074 3074 3075 3075 3074 3074 3074 3074 3075 3075 3075 3076 3076 3077 3077 3077 3077 3078 3078 3079 3080 3080 3081 3081 3081 3081 3081 3081 3081 3081 3080 3080 3080 3080 3079 3078 3078 3079 3080 3079 3078 3078 3078 3079 3079 3078 3078 3078 3078 3079 3079 3079 3080 3081 3081 3082 3081 3081 3080 3080 3080 3080 3079 3079 3078 3077 3076 3075
3074 3073 3073 3073 3074 3074 3074 3074 3074 3074 3074 3074 3073 3073 3073 3074 3074 3074 3074 3075 3075 3075 3075 3075 3075 3075 3076 3077 3077 3077 3077 3077 3077 3076 3076 3075 3075 3075 3074 3074 3073 3073 3072 3072 3073 3074 3074 3074 3074 3074 3074 3074 3074 3074 3074 3075 3075 3076 3077 3078 3078 3078 3078 3078 3078 3078 3077 3077 3077 3076 3075 3074 3073 3073
3073 3073 3073 3073 3073 3073 3073 3072 3072 3072 3072 3072 3072 3071 3071 3071 3071 3072 3072 3072 3072 3072 3072 3072 3072 3073 3073 3073 3073 3072 3072 3072 3072 3071 3071 3071 3070 3070 3069 3069 3069 3068 3067 3067 3067 3068 3068 3068 3068 3068 3068 3069 3071 3071 3071 3071 3072 3073 3074 3075 3075 3075 3075 3075 3075 3075 3075 3075 3075 3074 3073 3073 3071 3070
3073 3073 3073 3073 3072 3072 3072 3072 3071 3071 3071 3071 3070 3070 3070 3069 3069 3069 3069 3069 3069 3069 3069 3069 3069 3069 3069 3068 3068 3067 3067 3067 3066 3066 3066 3066 3065 3065 3065 3065 3065 3064 3064 3063 3063 3063 3063 3063 3063 3064 3065 3066 3067 3067 3068 3069 3070 3071 3071 3071 3071 3071 3072 3072 3073 3073 3073 3073 3072 3072 3071 3071 3070 3069
3073 3073 3073 3072 3072 3071 3071 3071 3070 3070 3070 3069 3069 3069 3068 3068 3067 3067 3066 3066 3066 3066 3065 3065 3065 3064 3064 3063 3063 3062 3062 3062 3061 3061 3061 3061 3060 3060 3060 3060 3059 3059 3059 3059 3058 3058 3059 3059 3060 3062 3062 3063 3063 3064 3066 3067 3068 3067 3067 3068 3068 3068 3069 3069 3070 3071 3071 3070 3070 3069 3069 3068 3067 3066
3073 3073 3073 3072 3072 3071 3071 3070 3070 3069 3069 3069 3068 3068 3067 3067 3066 3065 3065 3064 3063 3063 3062 3062 3061 3061 3060 3059 3059 3058 3058 3058 3057 3057 3057 3056 3056 3056 3055 3055 3055 3054 3054 3054 3055 3055 3056 3057 3059 3060 3060 3060 3061 3062 3063 3064 3064 3064 3065 3065 3065 3066 3066 3067 3067 3068 3068 3068 3067 3067 3066 3066 3065 3064
3074 3074 3073 3073 3072 3071 3070 3070 3069 3069 3068 3068 3067 3067 3066 3065 3065 3064 3063 3062 3062 3061 3060 3060 3059 3058 3057 3056 3055 3055 3054 3054 3054 3054 3054 3053 3053 3052 3052 3051 3051 3051 3052 3052 3053 3054 3055 3056 3058 3058 3059 3059 3060 3060 3061 3061 3062 3063 3063 3063 3064 3064 3064 3065 3065 3065 3065 3065 3065 3065 3064 3063 3063 3062
3076 3075 3074 3073 3072 3071 3070 3069 3068 3068 3067 3066 3066 3065 3065 3064 3063 3063 3062 3061 3061 3060 3059 3058 3057 3056 3055 3054 3053 3052 3052 3052 3052 3052 3052 3052 3051 3051 3051 3051 3051 3051 3051 3051 3052 3053 3054 3055 3056 3056 3057 3058 3058 3059 3059 3060 3061 3061 3062 3062 3063 3063 3064 3064 3064 3063 3063 3063 3062 3062 3061 3061 3060 3060
3077 3076 3075 3074 3072 3072 3071 3070 3068 3068 3067 3066 3065 3064 3063 3063 3062 3061 3061 3060 3059 3059 3058 3057 3056 3055 3054 3053 3052 3052 3051 3050 3050 3051 3051 3051 3051 3051 3051 3051 3051 3051 3051 3051 3052 3052 3053 3053 3054 3054 3055 3056 3056 3057 3058 3059 3060 3061 3061 3061 3062 3062 3063 3063 3062 3062 3061 3061 3060 3060 3059 3059 3058 3058
3077 3076 3075 3074 3073 3072 3071 3070 3069 3068 3067 3066 3065 3064 3063 3062 3062 3061 3060 3059 3058 3058 3057 3056 3055 3054 3053 3052 3052 3051 3050 3050 3049 3049 3050 3051 3051 3051 3050 3050 3051 3051 3051 3051 3052 3052 3052 3053 3053 3054 3054 3055 3056 3057 3058 3059 3060 3060 3060 3060 3061 3061 3061 3061 3061 3060 3060 3059 3059 3058 3058 3058 3057 3057
3078 3076 3075 3074 3073 3072 3071 3069 3068 3068 3067 3065 3064 3064 3063 3062 3061 3061 3060 3059 3058 3057 3056 3055 3054 3053 3053 3052 3051 3051 3050 3049 3049 3049 3049 3049 3050 3050 3050 3051 3051 3051 3052 3052 3052 3052 3053 3053 3054 3054 3055 3055 3055 3057 3058 3058 3059 3059 3059 3059 3060 3060 3059 3059 3059 3059 3059 3059 3058 3058 3058 3057 3057 3056
3078 3077 3076 3075 3074 3072 3071 3070 3069 3067 3066 3065 3064 3063 3062 3062 3061 3060 3059 3058 3057 3056 3055 3054 3054 3053 3052 3052 3051 3050 3050 3050 3050 3049 3049 3049 3049 3049 3049 3050 3051 3051 3051 3052 3052 3052 3053 3053 3054 3055 3055 3055 3055 3056 3057 3058 3058 3058 3058 3059 3059 3059 3059 3059 3059 3059 3059 3059 3058 3058 3057 3057 3056 3055
3079 3078 3076 3075 3074 3073 3072 3071 3069 3068 3067 3065 3064 3063 3062 3061 3061 3060 3059 3058 3057 3056 3055 3054 3053 3052 3052 3051 3050 3050 3050 3049 3049 3049 3049 3049 3048 3048 3049 3049 3050 3050 3051 3051 3051 3052 3052 3053 3053 3053 3054 3054 3055 3056 3057 3057 3057 3057 3057 3058 3058 3058 3058 3058 3058 3058 3058 3058 3058 3057 3056 3056 3055 3054
3079 3078 3077 3076 3075 3074 3073 3071 3070 3069 3067 3066 3064 3063 3062 3061 3060 3059 3058 3057 3056 3055 3054 3053 3052 3051 3051 3050 3050 3049 3049 3049 3048 3048 3048 3048 3048 3048 3048 3048 3049 3049 3050 3050 3050 3051 3052 3052 3052 3053 3053 3053 3054 3055 3056 3056 3056 3056 3056 3056 3057 3057 3057 3057 3057 3057 3057 3057 3056 3056 3055 3054 3053 3052
3079 3078 3077 3076 3075 3074 3073 3072 3070 3069 3068 3066 3065 3063 3062 3061 3060 3059 3058 3056 3055 3054 3053 3052 3052 3051 3050 3050 3049 3049 3048 3048 3047 3047 3047 3047 3047 3047 3047 3047 3047 3048 3048 3049 3049 3050 3051 3051 3052 3052 3052 3053 3053 3054 3054 3054 3054 3054 3055 3055 3056 3056 3056 3056 3056 3056 3056 3056 3055 3054 3054 3053 3052 3051
3080 3079 3078 3077 3076 3074 3073 3072 3070 3069 3068 3066 3065 3063 3062 3060 3059 3058 3057 3056 3054 3053 3052 3052 3051 3050 3049 3049 3048 3048 3048 3047 3047 3046 3046 3046 3046 3046 3046 3046 3046 3047 3047 3048 3048 3049 3050 3050 3050 3051 3051 3052 3052 3053 3053 3053 3053 3053 3053 3054 3054 3055 3055 3055 3055 3055 3055 3055 3054 3053 3053 3052 3051 3050
3080 3079 3078 3077 3076 3074 3073 3072 3070 3069 3068 3066 3065 3063 3061 3060 3058 3057 3056 3055 3054 3053 3052 3051 3050 3049 3048 3048 3047 3047 3047 3046 3046 3046 3046 3045 3045 3045 3045 3045 3045 3045 3046 3047 3047 3047 3048 3048 3049 3049 3050 3051 3051 3052 3052 3052 3052 3052 3053 3053 3054 3054 3054 3054 3054 3054 3054 3053 3053 3052 3051 3051 3050 3049
3080 3079 3078 3077 3076 3074 3073 3072 3070 3069 3067 3066 3064 3063 3061 3059 3058 3057 3056 3055 3054 3052 3051 3050 3049 3049 3048 3047 3047 3046 3046 3046 3045 3045 3045 3045 3045 3045 3045 3045 3045 3045 3046 3046 3046 3047 3047 3047 3047 3048 3048 3049 3050 3051 3051 3051 3052 3052 3053 3053 3053 3054 3054 3053 3053 3053 3053 3052 3051 3051 3050 3049 3048 3047
Wind_Speed
18 20 21 23 23 22 23 24 25 26 25 25 26 25 23 22 22 21 20 18 18 20 20 20 20 19 20 20 19 18 17 16 14 13 12 12 12 11 11 10 10 10 9 9 9 9 10 10 10 10 10 10 11 11 11 12 13 14 14 13 13 12 11 10 9 8 8 8 8 8 8 8 8 8
17 19 19 22 23 23 23 23 24 23 23 24 25 25 23 22 22 22 20 17 17 19 20 19 19 19 19 19 19 18 17 16 15 14 13 13 13 13 12 11 11 11 10 10 10 10 10 10 10 10 11 11 11 12 12 12 14 15 15 15 15 14 13 12 11 10 10 9 10 10 10 10 10 10
18 19 19 21 22 23 24 24 23 23 24 25 25 24 23 22 23 23 21 19 19 19 19 19 18 18 18 18 19 19 17 17 16 15 14 14 14 13 13 12 12 12 11 11 11 10 10 10 10 10 11 11 12 12 12 13 14 15 16 16 16 15 14 13 12 12 12 12 12 11 12 12 11 12
19 20 21 22 22 24 25 25 25 25 25 25 25 25 24 23 23 23 22 21 21 20 19 19 18 18 19 20 21 20 19 18 17 16 15 15 15 14 13 13 13 13 12 12 11 11 11 11 11 11 11 12 12 12 12 13 14 15 16 16 16 15 15 14 14 14 14 14 14 13 13 13 13 13
20 21 22 24 24 25 26 27 27 27 26 25 26 26 24 24 25 24 23 23 23 22 21 20 20 20 21 22 22 21 20 19 17 16 16 16 15 15 14 14 14 13 13 12 12 11 11 12 12 12 12 12 13 13 13 14 14 15 16 16 16 16 16 16 16 16 16 15 15 14 14 14 14 14
19 21 22 23 24 25 26 27 27 26 26 26 25 24 24 23 23 24 24 23 23 23 21 21 22 23 22 22 21 20 19 19 17 16 16 16 16 16 16 15 15 14 14 13 13 12 12 13 13 13 13 13 14 14 14 15 15 15 16 17 17 17 17 17 17 17 16 16 15 14 14 14 13 13
19 21 21 21 23 24 25 26 26 25 25 25 24 24 25 24 23 24 25 24 24 23 22 21 22 23 22 21 20 19 19 19 18 17 17 17 17 17 16 16 16 15 15 14 14 14 14 14 14 14 13 14 15 16 16 16 16 17 17 17 17 17 17 17 17 17 16 15 14 14 13 13 13 13
19 21 20 20 22 24 25 25 25 24 23 24 25 25 25 24 24 24 25 25 25 24 23 22 22 22 21 21 20 19 19 20 19 19 19 19 19 18 17 16 16 17 17 16 15 15 15 15 14 13 13 14 16 17 17 17 17 17 18 18 18 17 17 17 16 15 14 14 13 13 13 14 14 14
20 21 20 20 22 24 24 24 24 22 22 24 25 24 23 23 24 24 24 25 25 24 24 24 25 25 23 21 21 19 18 20 20 20 20 20 20 20 18 18 18 18 17 16 16 16 16 15 14 14 14 15 16 16 17 17 17 17 18 18 17 17 16 15 15 14 14 14 14 15 15 16 16 17
18 21 21 21 23 24 23 22 22 21 21 23 23 22 22 22 23 24 24 24 23 23 25 25 26 25 22 20 20 19 18 19 19 19 20 20 21 20 19 19 19 19 17 17 17 17 17 16 15 14 15 15 15 15 15 16 16 16 17 16 16 15 15 15 15 15 16 16 16 17 17 18 18 19
16 19 21 22 23 22 21 21 21 21 20 20 20 22 22 22 22 23 24 23 23 24 24 23 24 23 21 21 20 18 18 19 20 20 20 20 20 20 20 19 19 18 18 18 19 18 17 16 14 14 13 13 13 13 13 14 14 15 14 14 14 14 15 16 16 17 17 18 19 19 20 20 20 21
15 18 20 21 21 21 21 21 20 20 20 20 21 22 23 23 23 23 23 23 23 24 23 23 24 24 23 22 21 20 20 20 20 20 21 21 20 18 18 18 18 19 19 19 19 17 16 15 14 12 12 12 12 12 12 12 13 13 13 14 14 15 16 17 18 19 20 21 21 22 22 23 23 23
16 17 19 21 21 21 22 21 20 20 21 22 23 22 22 23 24 24 24 23 22 23 24 24 25 26 25 23 23 22 20 19 19 20 21 22 21 19 18 19 20 21 20 19 18 17 16 15 13 13 13 13 13 12 12 13 13 14 15 15 17 17 18 19 20 21 22 23 24 25 25 24 24 25
16 17 18 20 21 22 22 20 20 21 22 24 24 23 22 22 22 23 22 22 22 23 25 24 24 27 28 26 22 20 18 18 19 20 20 21 21 21 21 21 22 21 19 18 18 17 16 15 14 13 13 13 13 13 14 14 15 16 17 18 19 19 20 20 21 23 24 26 26 27 26 26 26 28
12 13 16 18 20 21 21 21 20 21 23 24 23 22 22 21 21 21 20 21 22 23 25 25 26 28 28 24 20 18 18 19 20 19 20 20 20 21 21 20 20 19 18 18 17 17 16 15 14 14 14 14 15 15 16 16 17 18 19 19 20 21 22 23 24 26 27 27 27 27 28 29 28 29
11 12 14 16 17 18 19 19 17 19 22 23 21 20 20 19 19 19 20 21 21 22 24 25 27 29 26 22 20 20 20 20 20 20 19 19 18 19 19 18 17 17 17 18 17 16 15 15 14 15 15 16 17 18 18 18 19 20 21 22 23 23 24 26 27 28 27 26 27 28 28 28 28 30
11 12 13 14 14 15 16 17 16 17 20 21 20 19 19 19 19 19 20 20 20 22 23 24 27 27 24 21 20 20 19 20 21 20 20 19 19 19 20 19 17 17 18 17 16 15 14 15 15 16 17 18 19 20 20 21 21 22 23 24 24 25 27 28 29 29 28 27 27 27 26 28 30 31
10 12 13 14 14 14 15 16 18 18 19 20 19 18 19 20 19 20 20 20 21 24 25 25 25 25 24 22 21 21 21 20 20 20 19 19 20 21 22 21 19 18 18 16 16 15 15 16 17 18 18 20 21 22 23 24 24 24 24 24 25 27 28 29 30 30 29 28 27 28 29 32 32 31
9 11 14 15 15 14 13 13 16 18 18 19 18 18 20 19 18 20 21 20 22 25 26 26 25 24 23 22 21 22 22 20 20 20 19 18 19 20 21 20 19 19 19 19 18 17 17 18 19 20 21 21 23 25 25 26 25 26 27 27 28 28 28 28 29 30 29 28 29 31 32 32 31 30
9 10 12 14 15 15 14 13 14 16 16 17 18 18 19 18 17 19 21 22 23 24 26 28 27 26 25 25 24 23 23 22 22 22 21 20 20 20 20 20 20 20 20 20 20 18 18 20 21 22 22 23 24 26 27 28 28 29 29 29 29 30 30 31 31 31 29 29 29 30 30 29 29 29
9 10 11 13 13 13 14 14 14 14 15 16 17 18 19 19 18 18 20 22 23 24 26 25 23 23 24 24 24 24 23 24 26 24 23 22 21 21 20 20 21 22 21 21 21 21 21 23 24 24 24 25 27 28 29 30 30 31 31 31 32 31 31 31 30 27 26 26 26 27 28 27 27 27
5 8 9 9 8 8 10 11 11 11 12 12 13 16 18 17 15 15 17 19 20 22 24 22 20 22 22 20 23 25 24 23 25 23 22 21 21 22 23 22 22 24 24 23 23 24 25 26 27 27 26 27 29 30 30 31 32 33 33 32 30 28 27 27 26 25 26 27 27 28 28 27 26 26
2 2 1 3 4 4 5 5 6 8 8 9 10 13 14 14 13 14 14 15 17 19 20 19 19 20 18 16 21 25 23 22 24 24 22 21 22 24 26 26 25 26 27 27 27 28 28 28 29 29 30 30 31 31 32 34 35 34 31 28 27 27 27 25 24 25 27 27 27 27 26 26 26 25
6 7 7 5 3 3 4 4 6 7 7 7 8 10 11 12 13 13 11 12 14 15 15 16 16 16 16 17 21 22 21 22 26 26 23 22 23 24 24 26 27 29 31 31 31 32 32 32 32 33 32 31 31 30 31 33 33 30 27 26 27 26 24 22 23 26 27 26 26 25 24 24 24 24
7 6 5 7 9 9 7 4 5 7 7 6 6 7 7 8 11 12 12 13 16 17 17 18 18 18 19 20 22 22 21 21 24 25 24 25 27 27 28 28 29 30 31 32 32 33 33 33 33 32 32 31 31 30 29 28 28 26 25 25 24 22 21 22 24 25 25 25 25 24 22 22 23 23
4 4 3 3 4 5 4 2 1 2 5 6 6 7 7 8 10 13 16 17 19 20 21 21 21 21 21 21 23 24 24 24 25 27 28 30 31 32 33 33 33 33 32 32 31 31 31 31 29 28 27 28 30 30 27 26 26 26 25 23 22 22 22 21 21 22 23 24 24 24 24 24 24 24
2 1 2 2 3 4 4 4 3 1 2 3 5 7 9 10 12 14 16 19 20 22 23 23 23 23 23 23 25 27 29 30 31 31 32 34 35 36 36 36 37 39 38 37 35 33 30 27 26 27 27 27 28 28 26 25 24 24 23 22 22 21 19 19 19 21 23 24 25 26 26 26 25 24
5 1 3 5 6 6 6 6 6 5 4 5 5 6 7 9 12 14 16 17 19 21 23 23 22 22 22 23 25 27 29 30 31 33 34 36 38 39 39 40 40 42 42 42 40 37 30 24 23 25 25 24 26 25 23 22 22 23 22 21 20 18 18 19 21 22 24 25 25 25 25 24 23 22
6 5 4 4 6 7 9 10 10 11 10 10 11 12 11 10 11 12 14 15 16 18 19 20 20 20 21 23 25 27 29 30 32 34 36 38 40 42 43 44 44 45 46 45 44 42 37 30 26 25 25 25 24 23 21 21 23 23 22 20 18 18 19 21 23 24 24 23 22 21 21 21 21 21
8 7 7 7 7 8 9 10 11 12 13 13 14 16 17 17 16 16 17 17 18 19 19 21 22 23 24 25 26 27 29 31 33 35 37 40 42 43 44 44 44 44 45 44 42 41 39 35 31 29 26 24 23 22 23 24 24 23 20 19 19 21 22 22 23 22 21 20 19 18 18 19 19 19
9 9 9 9 9 9 9 10 11 12 12 13 14 15 17 19 20 21 21 22 22 23 23 24 25 25 26 26 27 27 29 30 31 33 35 36 37 39 39 40 39 39 39 38 37 37 35 34 31 27 22 20 21 23 24 23 22 20 20 21 22 23 23 23 21 20 18 17 16 16 16 16 15 15
9 10 10 10 10 10 10 11 11 11 12 12 13 14 15 16 18 19 21 22 23 24 24 25 25 25 25 26 27 28 29 30 32 33 34 34 34 35 35 35 35 35 34 33 31 29 26 23 21 19 18 18 20 22 21 19 19 20 22 23 24 24 24 23 20 17 16 15 14 14 13 13 12 12
13 13 12 12 11 11 11 11 11 11 11 12 12 13 13 14 15 16 17 19 21 22 23 23 24 24 25 26 27 29 30 31 32 32 32 32 31 30 29 28 27 25 23 22 20 17 14 13 13 15 16 18 19 19 19 19 20 22 23 23 23 23 22 21 19 16 14 13 12 11 11 10 10 11
15 14 13 13 13 12 12 12 12 12 12 12 12 13 13 14 14 15 15 16 17 18 19 19 20 21 22 23 24 25 26 27 28 28 28 26 23 21 19 17 16 15 13 11 11 10 10 11 12 14 16 17 18 19 20 20 21 22 22 22 22 21 20 18 17 15 13 11 10 10 9 9 9 9
14 14 14 14 14 15 15 14 14 14 14 14 14 14 14 14 15 15 16 16 16 16 16 16 17 17 18 19 20 22 23 23 23 24 23 19 16 14 12 9 8 7 7 6 6 7 7 8 10 11 13 14 16 17 18 19 19 20 20 21 20 19 17 15 14 13 11 10 9 8 8 8 7 8
14 15 16 16 16 16 16 16 16 16 16 16 16 16 16 16 16 16 16 16 17 17 16 16 16 15 15 16 16 18 19 19 19 20 19 14 11 10 9 7 6 6 6 6 7 7 8 8 10 11 12 13 14 14 15 16 17 18 19 19 18 16 13 12 11 10 9 8 8 7 7 6 6 6
15 16 17 17 18 18 18 18 18 17 17 16 16 16 16 17 17 17 17 17 16 16 16 16 16 16 16 16 15 15 15 15 15 16 15 12 10 10 9 8 7 8 8 8 8 8 8 8 9 9 10 12 13 13 12 13 14 15 15 15 14 13 12 10 8 7 7 6 6 5 5 5 5 6
15 17 17 18 19 19 19 19 19 19 18 18 17 17 16 16 16 16 16 16 16 16 15 14 14 14 14 15 14 14 13 13 12 12 12 11 11 11 10 9 8 9 9 9 9 9 8 7 6 6 8 10 10 9 9 10 10 11 12 12 11 11 10 8 6 6 5 4 3 3 3 4 5 6
15 16 17 17 18 19 19 19 19 19 19 19 19 19 18 17 17 16 16 15 15 16 15 15 14 14 13 13 13 13 12 12 11 9 9 9 9 9 9 9 9 9 9 9 9 9 8 6 6 8 10 11 10 9 9 8 9 10 11 11 9 8 7 6 5 5 4 3 2 2 3 5 6 8
14 14 15 16 17 18 18 18 18 19 19 19 19 19 19 18 18 17 16 15 15 15 15 15 15 15 14 13 12 13 12 11 9 7 6 6 6 6 7 8 9 9 9 10 11 9 8 8 7 8 8 9 9 8 8 7 8 10 11 10 8 7 7 7 6 5 4 2 2 3 5 6 8 9
13 13 14 14 15 16 16 17 17 17 17 18 18 19 19 19 18 17 16 16 15 15 14 14 14 15 14 13 13 12 11 9 8 6 5 5 5 6 7 9 11 12 12 12 12 10 9 9 9 8 7 7 7 6 5 6 8 10 10 8 8 8 8 7 5 4 3 2 2 4 6 7 9 10
12 13 13 14 14 15 15 15 16 16 16 16 16 17 17 17 17 17 16 16 16 15 14 14 14 14 14 13 13 11 9 8 7 7 6 5 6 7 8 9 12 14 15 14 13 11 10 10 10 10 10 9 8 6 6 7 9 10 9 9 9 9 8 6 5 3 2 2 3 4 6 7 9 10
12 12 12 13 13 14 14 15 15 15 15 15 15 15 16 16 16 16 16 16 16 16 15 14 14 14 14 13 13 12 10 8 8 8 7 7 7 9 10 11 12 13 15 15 14 12 11 11 11 11 11 11 9 8 8 9 9 9 9 9 9 8 7 6 5 4 3 3 4 4 6 7 9 10
11 11 12 12 12 12 13 14 14 14 14 14 14 14 15 15 15 16 16 15 15 15 15 14 13 13 13 13 13 12 11 9 8 8 8 8 9 10 11 12 13 14 15 15 14 13 13 12 11 11 11 11 10 9 9 10 10 10 10 10 9 8 7 7 6 5 4 4 5 6 7 8 9 11
11 11 12 12 12 12 13 13 14 14 14 14 14 14 14 14 15 15 15 15 15 15 15 14 13 13 12 12 12 12 11 10 9 8 7 7 9 11 12 12 13 14 15 14 13 13 12 12 11 10 11 11 10 10 10 11 11 11 11 10 8 8 8 8 7 6 6 6 7 7 8 9 10 11
Wind_Direction
235 218 212 209 207 209 211 213 216 218 216 214 214 216 218 221 224 228 230 231 229 226 226 225 218 214 215 216 220 224 224 224 222 221 219 216 215 218 221 226 227 224 224 228 233 237 242 244 246 250 252 251 247 241 236 228 222 220 220 223 227 232 238 243 247 251 256 260 262 262 264 264 265 266
243 225 217 213 209 210 212 214 218 218 215 214 215 216 219 222 224 227 227 227 230 230 230 227 219 212 214 220 224 223 222 222 222 220 218 214 214 218 224 228 226 223 224 230 236 241 242 241 242 247 250 249 245 239 233 229 224 220 220 225 230 235 242 246 251 255 258 262 264 264 265 265 266 267
252 234 225 220 213 213 216 216 218 220 218 214 214 216 221 223 225 226 225 222 223 227 228 224 217 213 215 220 225 224 221 222 223 221 219 215 215 220 226 229 226 223 225 232 238 241 240 240 242 246 249 248 242 236 231 229 224 222 223 228 233 239 245 249 253 256 259 263 264 265 265 265 265 266
253 241 234 228 219 216 218 216 216 219 217 213 214 219 221 222 223 223 222 220 221 222 223 219 215 215 217 221 226 225 222 223 223 221 219 216 217 223 227 227 225 223 227 232 237 239 239 240 242 247 249 245 237 231 229 228 226 226 228 231 236 241 245 249 252 255 260 264 265 265 265 265 266 265
248 244 240 232 223 220 220 217 217 218 216 214 217 221 222 222 222 221 219 219 220 220 218 214 212 214 217 221 226 226 225 225 223 221 219 217 218 223 225 224 223 224 228 232 235 237 239 242 244 248 249 241 232 228 227 226 227 228 230 233 237 240 244 248 252 257 262 264 266 266 266 267 267 266
244 243 239 232 224 223 223 221 219 217 216 217 220 225 228 227 225 225 224 221 221 222 218 214 214 216 217 220 224 225 226 226 221 219 219 219 221 223 221 220 222 224 227 230 234 237 240 243 246 250 249 238 228 225 226 226 226 228 231 234 237 241 246 251 256 260 263 265 267 268 268 269 268 269
239 238 235 231 227 224 225 224 220 216 216 219 223 227 230 228 225 227 228 223 221 222 219 216 219 222 221 222 223 221 222 223 218 214 216 218 221 222 220 219 220 222 226 230 234 238 242 246 250 252 246 234 225 224 225 226 227 230 233 237 241 245 250 254 258 262 265 267 269 270 270 270 269 269
232 232 231 232 229 225 224 224 220 217 219 225 228 228 228 227 226 227 228 226 223 221 219 218 221 224 222 223 226 222 220 222 219 215 217 219 219 218 217 218 220 222 225 229 234 240 244 249 252 250 240 229 224 223 224 226 229 233 237 240 244 248 252 256 260 263 265 266 266 266 267 267 268 270
228 228 229 229 227 224 223 225 226 224 225 229 232 231 227 227 229 231 231 229 225 220 218 217 217 217 215 217 223 223 220 222 223 220 217 217 217 217 216 217 220 223 226 231 237 241 246 250 250 243 234 229 226 226 227 229 232 235 239 243 246 250 255 259 260 261 261 261 262 264 266 268 271 275
229 227 225 225 225 224 224 227 232 234 233 231 230 229 228 229 233 235 233 231 228 221 219 220 218 215 214 216 219 219 216 219 223 222 220 219 220 220 218 219 223 226 227 231 236 241 245 246 242 237 233 232 233 232 232 234 237 240 243 246 250 254 256 258 259 260 261 262 264 266 268 271 274 277
233 228 227 228 230 230 230 231 232 235 236 232 226 223 226 229 232 233 232 231 229 224 221 221 219 217 217 218 217 215 213 214 218 220 221 222 225 225 222 221 224 227 229 231 236 240 242 241 238 237 238 238 239 238 238 240 243 246 248 251 253 255 257 259 261 263 265 266 267 269 271 273 275 279
235 233 233 235 238 239 239 236 232 231 231 228 225 223 224 226 227 228 229 229 228 226 222 218 217 218 220 219 216 215 217 219 223 227 225 221 222 226 226 224 222 223 227 231 236 238 238 237 236 236 239 241 243 243 245 249 251 252 254 254 255 258 260 263 266 268 269 270 271 273 275 278 281 283
235 235 236 237 240 244 244 239 232 230 230 227 225 226 225 225 225 225 223 224 227 227 223 215 212 216 220 218 218 221 223 224 227 231 227 219 215 217 221 223 223 223 225 228 231 233 234 235 236 237 240 244 248 250 252 254 255 256 257 257 259 262 264 266 269 271 273 274 275 276 277 280 282 282
240 240 239 237 238 240 241 238 231 228 231 230 225 224 224 224 225 224 220 222 227 228 224 217 214 217 217 216 218 222 225 226 224 222 219 216 216 216 216 219 222 224 226 228 229 231 233 237 239 242 245 249 252 253 252 253 257 258 259 260 261 264 268 272 274 275 275 276 276 277 276 275 276 278
245 244 242 240 238 236 237 239 235 229 230 232 229 225 222 221 223 224 222 224 227 230 228 222 220 220 216 213 217 216 216 221 223 219 214 214 218 221 221 224 226 227 228 230 231 235 240 243 244 245 246 249 251 252 254 258 263 263 262 260 261 266 273 277 278 277 276 277 277 278 277 274 274 278
249 246 243 240 237 234 235 237 236 231 229 230 229 227 225 224 225 225 226 224 223 229 230 225 224 222 213 209 216 215 212 216 219 218 214 213 218 224 226 228 227 225 228 231 234 238 241 243 244 244 244 245 249 253 258 262 266 269 268 266 267 271 275 277 278 279 280 281 280 280 279 279 279 281
255 247 242 240 236 235 236 236 235 234 231 229 229 229 227 226 226 227 228 224 221 225 227 224 223 219 208 206 215 217 214 212 215 218 216 213 215 220 223 223 222 225 231 235 238 240 242 244 245 246 248 252 256 259 262 265 269 272 273 270 267 268 273 277 277 278 280 281 280 279 282 285 286 285
259 250 243 240 239 239 239 236 233 232 229 226 227 231 230 229 231 231 227 224 225 224 221 220 218 213 209 210 214 218 219 215 214 218 218 217 219 220 222 222 223 228 233 235 238 240 243 246 249 252 257 260 261 263 266 267 269 271 273 271 268 269 273 276 276 278 281 281 281 282 285 289 289 288
252 249 246 245 244 244 243 239 234 231 230 227 225 225 227 229 233 232 225 223 228 223 215 212 211 208 213 216 214 218 222 219 218 219 217 219 223 224 225 224 223 230 235 236 237 240 245 251 255 259 261 262 264 266 267 266 267 270 272 272 272 272 273 274 276 280 283 283 284 286 288 290 290 290
260 252 250 248 244 240 238 238 237 235 233 229 223 220 223 226 230 232 228 227 231 226 215 212 208 206 214 219 215 216 218 217 219 220 218 220 224 227 231 232 233 238 243 245 246 249 254 256 257 260 261 261 263 265 266 267 268 270 270 271 271 269 267 269 272 277 279 281 284 287 289 291 291 291
257 251 249 251 247 242 240 237 235 233 229 225 220 216 219 224 225 227 229 229 229 226 221 219 215 212 219 224 219 219 222 220 218 219 221 224 228 231 236 242 246 246 245 247 250 254 258 258 258 261 262 260 262 265 267 268 268 269 270 265 260 257 258 260 264 270 277 283 287 291 293 294 293 292
230 243 243 249 245 234 231 231 229 226 222 224 222 214 214 220 221 222 227 226 222 219 220 224 223 217 219 227 230 231 232 225 219 221 226 229 232 237 239 242 248 248 248 249 250 252 255 256 257 260 260 261 264 266 267 267 267 266 262 252 247 251 260 267 271 276 281 285 288 291 293 293 292 292
2 352 299 270 268 252 240 239 232 218 211 216 220 217 219 225 225 224 224 218 215 216 219 223 223 215 214 231 240 237 234 232 227 225 228 232 237 242 241 240 244 248 249 249 249 250 252 254 256 258 259 262 265 266 266 264 260 254 249 248 257 270 282 288 289 289 289 289 291 291 292 292 292 293
13 33 58 84 122 155 166 191 206 206 207 209 208 210 217 221 221 224 228 227 230 235 235 236 239 236 235 247 249 240 237 239 235 229 231 240 247 248 245 245 250 253 253 252 253 255 256 256 257 257 258 261 263 263 260 255 250 248 255 268 279 285 290 293 291 289 289 291 293 293 293 294 295 297
22 23 58 102 119 125 135 171 198 203 210 213 203 206 215 219 221 229 237 240 243 247 248 246 248 250 247 249 250 247 242 240 239 240 248 257 259 256 252 252 254 256 257 258 259 261 260 258 256 255 256 255 253 251 251 251 255 264 274 281 284 285 286 286 284 285 287 288 291 293 295 297 298 300
48 43 56 88 90 76 71 63 94 196 217 224 222 230 241 242 238 239 242 243 244 247 249 248 248 249 249 248 249 251 252 252 254 257 260 261 262 260 258 255 253 253 256 259 261 261 259 257 255 252 250 248 247 249 256 263 270 277 280 280 281 282 282 282 282 283 286 289 294 298 300 301 302 301
55 47 12 353 353 17 38 47 49 48 239 237 237 245 252 251 248 245 243 244 246 247 248 247 245 247 250 252 253 256 258 261 263 264 264 263 263 262 261 258 254 252 253 254 256 258 256 253 252 250 249 252 255 257 263 270 275 278 279 279 280 281 281 282 284 287 291 295 298 299 299 299 300 299
44 1 311 312 313 310 309 314 317 301 275 258 258 268 267 255 249 247 247 249 252 252 251 248 245 245 250 256 260 261 262 264 265 267 268 268 267 265 264 261 258 255 254 252 251 251 248 246 249 250 249 253 258 261 264 269 273 275 277 279 280 280 282 285 289 293 295 296 296 297 297 297 296 294
30 24 357 334 319 309 304 304 304 301 293 281 277 280 282 274 263 259 260 262 262 260 258 256 255 257 260 264 268 269 270 271 272 273 274 273 271 268 265 263 260 258 257 253 249 246 244 241 239 237 234 238 249 260 266 267 269 273 276 279 280 281 285 290 292 293 294 294 295 295 294 292 289 287
14 11 5 356 345 335 328 321 316 313 309 300 292 288 288 286 281 275 272 271 268 266 266 266 268 270 272 274 274 274 273 273 274 275 275 274 271 268 264 262 261 259 258 256 252 247 242 236 230 230 233 238 246 256 262 263 267 272 275 278 281 284 288 291 293 294 295 295 292 288 284 282 283 286
11 8 2 356 350 344 338 333 327 323 319 313 307 301 296 293 290 286 283 281 278 275 275 275 276 278 278 278 276 273 271 271 271 272 272 271 270 268 266 264 262 261 259 257 252 245 239 234 232 235 242 246 247 250 256 261 265 270 274 278 283 286 289 291 292 292 291 287 281 278 277 279 284 287
19 14 8 0 354 349 346 342 337 333 329 324 320 314 309 304 299 296 293 290 287 285 283 281 281 280 281 281 279 277 275 274 273 273 272 271 270 268 267 265 263 261 256 252 248 243 238 236 237 238 241 244 246 250 255 260 266 271 276 280 284 287 289 290 289 285 280 276 276 279 283 287 292 294
32 25 20 14 9 4 359 354 349 344 341 337 333 329 325 320 314 309 304 298 295 292 288 285 283 280 279 280 280 280 279 278 277 275 274 272 269 267 264 260 257 255 250 245 242 240 237 234 235 236 239 242 245 249 254 259 265 271 276 280 284 286 287 287 284 280 277 277 280 286 292 297 299 302
34 29 27 24 20 17 13 7 2 359 356 352 348 344 339 335 330 326 320 315 310 305 300 296 292 289 287 286 285 284 284 282 280 277 272 267 262 258 255 253 249 246 244 240 238 239 242 241 239 239 241 244 247 252 257 262 267 272 276 279 280 280 280 280 280 280 281 286 291 296 301 304 306 311
38 36 35 31 27 24 20 14 11 9 7 4 360 356 352 347 344 340 337 335 332 329 324 319 313 307 302 299 296 295 293 289 284 278 270 262 256 253 248 247 251 254 254 259 262 263 264 261 255 253 252 253 256 259 263 266 270 272 272 272 270 270 272 275 277 281 287 295 301 305 307 309 314 323
41 40 38 35 32 29 24 20 17 14 11 7 3 1 359 356 353 352 351 349 347 345 342 339 335 329 322 314 309 306 304 299 294 287 274 259 254 260 254 247 257 272 276 281 288 291 289 282 274 270 269 267 264 261 261 264 266 264 261 261 263 265 268 272 277 286 294 300 305 308 311 318 330 340
38 38 37 34 32 29 26 24 20 17 14 9 5 2 360 357 357 357 356 354 351 350 348 346 343 339 336 331 325 321 315 308 304 299 285 261 245 249 256 258 268 279 282 285 291 294 291 285 281 281 276 267 259 255 253 254 254 252 251 255 261 266 272 278 285 291 295 298 302 307 315 329 342 347
32 32 31 30 28 26 24 21 19 17 14 10 6 4 3 0 359 358 356 352 349 347 346 345 341 337 335 334 330 325 320 313 307 305 297 275 251 244 250 256 262 266 270 276 284 285 280 276 273 268 264 259 252 243 239 239 239 240 247 256 263 267 273 280 284 281 279 282 289 300 316 329 335 339
27 26 25 25 25 24 21 18 16 14 11 8 5 3 2 1 0 359 356 350 345 342 340 337 334 330 330 330 326 321 319 317 314 310 303 287 264 249 246 250 255 259 262 266 270 271 269 265 251 238 240 245 243 235 231 232 232 235 245 254 259 258 257 255 249 242 238 244 265 298 320 327 331 336
22 21 20 20 21 21 19 16 14 11 9 6 2 359 359 0 360 357 354 349 345 341 337 332 328 328 329 329 325 322 324 325 325 322 314 302 285 264 252 251 255 260 265 267 266 263 259 260 258 250 245 243 241 236 230 229 233 239 244 246 245 237 227 219 212 208 207 218 273 313 325 329 334 338
16 16 15 15 16 17 16 14 12 10 7 4 360 357 356 357 356 354 351 346 342 340 336 331 326 325 326 324 322 323 324 321 315 309 304 303 297 284 271 263 258 258 262 265 264 262 261 259 258 264 270 267 259 252 244 238 241 244 243 236 227 218 208 198 194 200 217 254 302 324 331 333 335 338
11 11 11 11 12 13 13 11 10 9 7 4 359 356 354 353 353 352 349 345 342 339 336 332 328 326 325 322 319 321 320 312 300 290 281 278 277 273 268 262 257 256 259 261 261 264 269 265 260 265 275 277 273 270 265 257 251 246 236 221 211 205 199 192 192 204 237 279 303 320 328 330 330 330
9 8 9 10 11 11 12 10 8 7 7 4 0 356 354 352 351 350 348 345 342 338 336 334 331 329 327 325 323 323 322 315 305 296 288 280 274 269 265 260 257 256 258 260 262 264 267 266 263 264 266 267 269 271 268 259 249 238 226 213 206 203 202 205 211 223 248 275 291 304 312 315 316 317
9 8 8 11 13 13 13 12 9 8 7 5 2 359 355 352 351 350 349 346 343 340 337 336 334 332 330 328 325 322 320 318 312 305 297 287 280 274 268 263 261 260 259 260 263 266 266 263 258 255 254 255 259 262 257 245 233 224 216 210 208 211 218 227 235 245 261 276 287 295 300 303 308 312
11 10 10 11 11 12 15 15 13 10 8 8 7 3 359 356 353 351 349 348 345 343 340 338 336 335 334 330 323 316 312 308 302 298 294 286 280 276 270 264 263 263 262 260 260 261 260 255 249 250 253 255 257 254 243 230 220 212 208 208 213 223 233 241 249 262 276 285 290 295 300 306 312 315